Location: *
(37.4917°N, 71.5558°E)
Time: 08:43:55
(UTC+00:00)

COSMOS 2455 - Pass Details

Date: 09 April 2020
Orbit: 899 x 910 km, 67.1° (Epoch: 03 June)

Event Time Altitude Azimuth Distance (km) Brightness Sun altitude
Rises 14:53:07 0° 339° (NNW) 3,542 6.6 -14.0°
Reaches altitude 10° 14:55:49 10° 347° (NNW) 2,599 5.7 -14.5°
Maximum altitude 15:01:26 39° 55° (NE) 1,342 3.5 -15.5°
Enters shadow 15:04:22 24° 107° (ESE) 1,781 3.8 -16.1°
